Wind_Speed
118 119 119 120 121 122 123 124 125 125 126 127 128 128 129 129 129 129 130 130 130 131 131 131 132 132 133 133 134 134 134 134 135 135 135 136 136 136 137 137 137 137 137 137 138 138 138 138 138 138 138 138 138 138 137 137 137 137 137 137 137 137 136 136 133 130 129 131 132 131 131 132 133 133 134 134 134 134 134 134 134 134 134 134 134
120 121 122 124 125 126 127 127 128 129 129 130 130 130 130 130 130 130 130 131 131 131 131 132 132 133 133 134 134 135 135 135 135 136 136 137 137 137 137 137 137 137 137 138 138 138 138 139 139 139 139 139 139 139 138 138 138 138 137 137 137 137 136 136 135 132 129 130 131 131 130 131 132 132 133 134 134 134 134 134 133 133 133 133 133
123 124 125 126 127 128 129 129 130 130 130 130 131 131 130 130 130 131 131 131 131 131 131 132 132 132 133 134 134 135 135 136 136 137 138 138 138 139 139 139 139 138 138 139 139 139 139 140 140 140 140 140 140 140 140 140 139 139 139 139 138 138 137 137 136 133 131 129 130 131 130 130 131 131 131 132 132 132 132 133 133 133 132 132 132
125 126 127 128 128 129 129 130 130 130 130 130 131 131 131 131 131 131 132 132 132 133 133 133 134 134 135 135 136 136 137 137 138 138 139 139 139 140 140 140 140 139 139 139 140 140 140 140 141 141 141 141 140 140 140 140 140 141 141 140 140 139 139 138 137 135 132 129 128 129 130 130 130 131 131 131 131 131 131 131 131 131 131 131 131
126 126 127 128 128 129 129 129 130 130 130 130 130 131 131 131 132 132 132 133 133 133 133 134 134 134 135 136 136 137 137 138 138 139 139 139 139 139 139 139 139 139 139 138 138 138 138 138 139 139 139 139 139 140 140 140 140 140 140 140 140 140 139 139 138 137 135 132 129 129 130 131 131 131 131 131 131 130 130 130 130 130 130 130 131
125 126 126 127 127 128 128 128 128 128 128 129 129 129 129 129 130 130 131 131 131 132 132 132 132 132 132 133 133 134 134 135 136 137 137 138 138 137 137 138 138 138 138 137 137 136 136 136 136 136 137 136 137 137 137 138 138 138 138 138 138 138 138 138 138 138 137 134 132 131 131 132 133 133 133 133 133 132 132 132 131 131 130 130 130
124 125 125 126 126 126 126 127 127 127 127 127 127 127 127 127 127 128 128 128 128 129 129 129 129 129 129 129 129 129 130 131 131 132 133 133 134 134 134 134 134 135 135 135 135 135 135 135 135 136 136 136 135 136 136 136 136 136 136 136 137 137 138 138 138 138 138 136 134 133 132 133 134 134 135 135 135 134 135 135 134 133 133 132 131
123 123 124 124 125 125 125 126 126 126 126 126 126 126 126 126 126 126 126 126 126 126 127 127 127 127 127 127 127 128 128 128 129 130 130 130 130 130 130 131 131 132 132 133 133 133 134 134 134 135 135 136 136 136 136 136 136 136 136 136 137 137 137 138 138 138 138 137 135 134 133 133 133 134 135 135 135 134 135 135 135 134 135 135 134
122 122 123 123 124 124 124 124 124 124 124 124 124 124 124 124 124 124 124 124 124 125 125 125 126 126 127 127 127 127 127 128 129 129 130 130 130 129 129 129 129 130 130 130 131 132 132 133 133 134 135 135 135 135 135 135 136 136 136 136 137 137 137 137 137 137 137 136 135 133 133 132 132 133 134 134 134 134 134 134 134 133 133 134 134
119 120 120 120 121 121 121 122 122 122 122 122 122 122 122 122 122 122 123 123 123 123 124 124 124 125 125 126 126 127 127 128 128 129 130 130 130 129 129 128 128 128 128 128 128 129 129 130 131 132 132 133 133 133 133 134 134 134 135 135 136 136 136 136 137 137 136 136 134 133 132 132 131 132 134 134 135 134 133 133 133 133 132 132 132
116 117 117 117 118 118 119 119 119 120 120 120 120 120 120 120 121 121 121 122 122 122 123 123 123 124 124 124 125 125 126 127 127 128 129 129 129 129 128 127 126 126 126 126 126 126 127 128 128 129 129 130 131 131 132 132 133 133 133 134 134 135 135 136 136 136 136 135 134 133 132 131 131 132 134 135 136 135 134 133 133 133 132 132 131
114 115 115 115 115 116 116 117 117 118 118 118 118 119 119 119 120 120 121 121 121 122 122 122 123 123 123 123 124 124 125 126 127 128 128 129 129 129 128 126 125 125 125 125 125 126 126 126 127 127 128 129 130 130 130 131 131 132 132 133 133 134 134 134 134 134 135 134 133 131 131 131 131 132 133 134 135 135 135 133 132 132 132 131 131
112 113 113 113 113 114 114 115 116 116 117 117 117 118 119 119 119 120 120 121 121 122 122 122 122 123 123 123 124 124 124 125 126 127 128 129 130 130 129 126 125 125 125 126 126 126 126 126 127 127 128 129 129 130 130 130 131 131 132 133 133 133 133 132 132 132 132 132 131 130 129 129 130 130 131 133 134 134 133 132 132 132 132 132 132
110 111 111 111 112 112 113 114 115 115 116 116 117 117 118 118 119 119 120 120 121 121 121 122 122 123 123 123 124 124 125 125 126 127 128 129 130 131 129 126 125 125 125 125 126 126 126 126 126 127 128 129 129 130 130 130 131 132 132 132 132 132 132 131 131 130 130 129 129 129 128 129 129 128 129 130 132 131 130 130 130 130 131 131 130
108 109 109 110 110 111 112 112 113 114 114 115 116 116 117 117 118 119 119 119 120 120 121 121 122 122 122 123 123 123 124 124 125 126 127 128 129 129 127 125 124 124 124 124 124 124 124 125 125 126 126 127 128 129 129 130 130 131 131 130 130 130 129 129 129 129 128 127 126 125 125 126 126 126 126 127 128 128 127 126 127 128 128 128 127
107 107 108 109 110 110 111 112 112 113 114 115 115 116 117 117 118 118 118 119 119 120 120 120 121 121 121 122 122 122 123 124 125 126 127 128 128 127 124 123 123 123 123 123 123 123 122 123 123 124 124 125 126 127 128 128 128 128 127 127 126 126 126 126 126 126 125 124 123 122 122 122 123 123 123 124 124 123 123 124 124 124 124 123 123
105 106 108 109 109 110 111 112 112 113 114 115 115 116 117 117 118 118 118 119 119 120 120 120 121 121 121 121 122 122 122 123 124 125 127 128 127 125 123 122 122 121 121 121 122 121 121 121 122 122 123 124 125 126 127 127 127 125 124 123 123 123 124 124 124 124 124 123 122 121 120 120 120 121 121 120 120 120 121 121 121 120 120 119 118
105 106 107 108 109 110 110 111 112 113 113 114 115 115 116 116 117 117 118 118 118 119 119 120 120 120 121 121 121 121 121 122 123 124 125 127 126 124 121 120 120 120 120 120 120 120 120 121 122 122 122 123 124 125 125 126 125 123 122 120 121 122 122 122 123 123 123 122 121 120 118 118 118 118 118 117 116 116 117 118 119 118 117 116 114
104 105 106 106 107 108 109 110 110 111 112 112 113 113 114 114 115 116 116 117 117 117 118 118 119 119 119 120 120 120 120 121 121 122 123 125 125 122 119 118 118 118 118 118 118 118 119 120 121 121 121 120 121 122 123 123 122 119 117 117 117 119 119 119 120 120 120 120 119 117 116 115 115 115 115 114 114 113 114 115 115 115 114 112 111
102 103 103 104 105 106 106 107 108 108 109 110 110 111 111 112 112 113 114 114 115 115 116 116 116 117 117 117 117 117 117 117 118 118 119 120 121 119 116 115 114 114 114 114 114 115 116 117 118 118 117 116 116 118 119 119 117 114 113 113 114 115 116 117 117 117 117 117 117 116 115 114 113 113 113 112 112 112 112 112 111 111 110 108 107
100 100 101 102 103 103 104 105 105 106 106 107 108 108 109 109 110 110 110 111 112 112 112 112 113 113 113 113 113 114 114 114 114 114 114 115 116 115 113 111 110 110 109 110 110 111 112 114 115 115 115 113 113 115 117 116 112 110 111 111 111 112 113 114 113 114 114 115 115 114 114 113 112 112 111 110 110 110 110 109 108 107 106 104 103
98 99 99 100 101 101 102 102 103 103 104 105 105 106 106 107 107 107 108 108 108 109 109 109 110 110 110 110 111 111 111 111 110 110 110 111 112 112 110 108 107 107 106 106 107 108 109 110 111 112 112 111 110 112 113 111 109 109 109 108 107 108 110 110 110 110 111 111 111 111 111 111 110 110 109 108 108 108 107 106 104 103 102 101 100
97 98 98 99 100 100 101 101 102 102 102 102 103 103 103 104 104 105 105 105 106 107 107 107 107 107 107 107 108 108 107 107 107 106 106 107 108 108 107 105 104 103 102 102 102 104 105 106 107 108 109 108 108 108 108 106 106 107 106 104 103 103 104 105 106 106 106 107 107 107 107 107 107 107 106 106 106 105 104 102 100 99 98 97 97
97 97 98 98 99 99 99 99 99 99 99 100 100 100 101 101 102 102 102 103 103 103 103 103 103 103 103 103 104 104 104 104 103 102 102 102 103 104 104 103 101 100 98 98 99 100 101 102 103 104 105 105 104 104 103 102 102 102 101 100 99 98 98 99 100 101 102 103 103 103 103 104 104 104 103 103 103 102 100 98 97 96 95 95 94
95 96 96 96 96 96 97 97 97 97 97 97 97 98 98 98 99 99 99 99 99 99 99 99 99 99 99 100 100 101 101 100 99 99 98 98 98 99 99 99 98 96 95 94 94 95 96 97 98 99 101 101 100 99 98 98 97 97 97 96 95 94 94 94 95 97 99 100 100 100 100 100 100 99 99 98 98 97 96 95 94 93 92 92 91
93 93 93 94 94 95 95 95 96 95 95 95 95 95 95 95 96 96 96 96 96 96 96 96 95 95 96 96 96 97 96 96 95 95 94 94 94 94 94 94 94 93 91 90 90 91 92 92 93 95 96 96 95 94 94 94 93 93 93 93 92 91 90 90 91 93 95 96 96 96 97 96 95 95 94 94 94 93 92 91 91 90 89 88 88
90 91 92 92 92 93 93 94 94 94 93 93 92 92 92 92 92 93 93 93 94 93 93 92 92 92 92 92 92 92 91 91 91 91 90 90 90 90 90 90 90 89 89 87 87 86 87 88 89 90 91 91 90 90 90 90 89 88 88 88 88 87 87 87 88 89 90 91 92 92 92 92 91 91 91 91 91 91 90 88 88 88 86 85 85
89 89 90 90 91 91 92 92 92 91 91 90 90 89 89 89 90 89 89 89 90 90 89 88 88 88 89 88 88 88 88 87 87 87 86 86 86 86 86 86 86 86 85 84 83 82 83 84 85 85 86 87 87 87 86 87 86 85 84 84 84 84 84 84 84 85 86 86 87 87 88 89 89 88 88 88 88 87 86 85 85 85 84 83 83
87 88 88 89 89 89 89 89 88 88 88 88 87 86 85 86 87 87 86 86 86 85 85 84 85 85 85 84 84 84 84 83 82 82 82 82 82 82 82 82 82 82 81 80 80 79 79 79 80 81 82 82 83 83 83 83 83 82 81 81 81 81 81 81 81 81 82 82 83 84 85 86 86 85 84 84 84 82 81 81 81 81 81 81 81
86 86 86 86 86 86 86 85 85 85 85 85 85 83 81 81 82 84 84 83 83 82 81 80 80 81 81 80 80 80 80 80 79 78 78 78 78 78 78 78 78 78 78 77 77 76 75 75 76 77 78 78 79 79 79 79 79 79 78 78 78 77 77 77 77 78 78 79 79 80 81 81 81 80 80 80 80 79 78 77 78 78 78 79 79
84 84 84 84 83 83 83 83 83 83 82 82 82 82 80 78 77 79 80 80 80 79 78 76 77 77 78 78 77 77 77 77 77 77 76 75 75 75 75 75 75 75 75 74 74 73 73 73 73 73 74 75 75 75 75 75 75 75 74 74 74 74 74 74 74 75 75 75 75 76 77 77 76 76 76 76 76 76 74 74 75 75 76 76 77
81 81 81 81 81 81 81 81 81 81 80 80 80 79 78 76 74 73 74 76 76 76 75 74 74 74 74 74 74 74 73 74 74 74 73 73 72 72 72 71 71 71 71 71 70 70 70 69 69 70 70 71 71 71 71 71 71 71 71 71 70 71 71 71 71 71 71 71 71 72 73 73 73 73 73 73 73 72 71 71 72 73 73 73 73
79 79 79 79 78 78 78 78 78 78 78 77 77 76 75 75 73 71 70 71 72 73 73 72 71 72 72 71 71 71 70 70 70 70 70 70 69 69 69 69 68 68 68 67 67 66 66 66 66 66 66 66 67 68 68 67 67 67 67 67 67 67 68 68 68 68 68 68 68 69 69 70 71 70 70 70 70 69 69 68 69 69 70 69 69
78 77 77 77 76 76 76 75 75 74 74 74 74 73 73 73 72 71 70 69 68 69 70 70 69 69 69 69 69 68 68 68 67 67 67 66 66 66 66 66 65 64 64 64 63 63 63 62 62 62 62 63 63 64 64 64 63 63 63 63 64 64 64 65 65 64 64 64 64 65 66 67 67 67 67 66 66 66 66 66 66 66 65 65 65
76 76 75 75 74 73 73 72 72 71 71 71 71 71 70 70 70 69 69 68 67 66 66 66 66 65 65 65 65 65 65 65 64 64 63 63 62 62 62 62 62 61 61 60 60 60 59 59 59 58 58 59 59 60 60 60 60 60 59 60 60 61 61 61 61 61 61 61 61 62 62 63 63 63 63 62 62 63 63 62 62 62 62 62 63
74 74 73 72 71 70 70 70 69 69 69 68 68 68 68 68 67 67 67 66 65 65 64 64 63 63 62 62 61 60 60 60 61 60 60 59 59 59 59 59 58 58 58 57 57 56 56 55 55 55 55 55 56 56 57 57 57 56 56 56 57 57 57 58 58 58 58 58 58 58 58 59 60 60 60 60 60 60 60 59 59 59 59 59 59
71 71 70 69 69 68 67 67 67 66 66 66 66 66 66 65 65 65 64 63 63 62 61 61 60 60 59 58 58 58 57 57 57 57 57 56 56 56 55 55 55 55 54 54 53 53 52 52 52 51 51 52 52 53 53 54 54 53 53 53 53 54 54 54 54 55 55 55 55 55 55 55 56 56 57 57 57 56 56 56 56 55 55 55 55
68 68 67 66 66 66 65 64 64 64 64 64 64 63 63 62 62 62 61 61 60 60 59 58 58 57 56 55 55 54 54 54 54 54 53 53 53 53 52 52 52 51 51 50 50 50 49 49 48 48 48 48 49 49 50 51 51 50 50 49 50 50 50 51 51 51 52 52 52 52 52 52 52 53 54 54 53 53 53 53 52 52 52 52 52
66 65 65 64 64 63 63 62 62 62 61 62 61 61 60 60 59 59 58 58 58 57 56 56 56 55 54 53 52 51 51 50 50 50 50 50 50 50 50 49 49 48 48 47 47 46 46 46 46 45 45 45 45 46 47 47 48 47 47 46 46 46 47 47 47 48 48 48 49 49 49 49 49 50 51 51 51 50 50 50 50 49 49 49 49
63 62 62 61 61 61 61 60 60 60 59 59 58 58 57 57 56 56 56 55 55 54 54 54 53 52 52 51 50 49 48 47 47 47 47 47 47 46 47 47 46 46 45 45 44 43 43 43 43 43 42 42 42 43 43 44 44 45 44 43 43 43 44 44 44 44 45 45 45 46 46 46 46 46 47 48 48 47 47 47 47 47 47 46 46
60 60 59 59 59 59 58 58 58 57 57 56 56 55 55 55 54 54 53 53 52 52 52 51 51 50 49 49 48 47 46 45 45 45 45 45 44 44 44 44 44 43 43 42 42 41 40 40 40 40 40 40 40 40 40 41 41 41 41 40 40 40 40 41 42 42 42 42 42 43 43 43 43 43 43 44 44 44 44 44 44 44 44 43 43
57 57 57 57 57 56 56 55 55 55 54 54 54 53 52 52 52 51 51 50 50 50 49 49 48 48 47 47 46 45 44 44 43 43 43 43 43 42 42 42 41 41 40 39 39 38 38 37 37 37 37 37 37 37 37 37 38 38 38 37 37 36 37 37 38 39 39 40 40 40 40 40 40 40 40 40 41 40 40 40 40 40 40 41 41
55 55 55 55 54 54 53 52 52 52 52 51 51 51 50 50 49 49 48 48 48 47 47 47 46 46 46 45 44 44 43 43 42 41 41 41 41 40 40 39 39 39 38 37 36 36 35 35 35 35 35 35 35 34 34 34 35 35 35 35 34 34 34 34 35 36 36 37 37 36 36 37 37 37 37 37 37 37 37 38 38 38 38 38 38
54 53 53 52 52 51 51 50 50 49 49 49 49 48 48 48 48 47 46 46 45 45 45 45 44 44 44 43 43 43 42 41 41 40 40 40 40 39 38 37 37 36 36 35 34 33 33 33 33 32 32 32 32 32 32 32 32 32 32 32 32 31 31 31 32 33 33 33 33 33 33 33 33 34 34 34 35 35 35 35 35 35 35 36 36
52 51 51 50 50 49 49 48 48 48 47 47 47 47 46 46 46 45 45 44 44 43 43 43 43 42 42 42 41 41 40 40 40 39 39 39 38 38 36 35 34 34 34 33 32 31 31 31 31 30 30 30 29 29 29 29 29 30 30 30 29 28 28 28 29 29 30 30 30 30 30 30 31 31 32 32 32 32 32 32 32 32 32 33 33
49 49 48 48 48 47 47 46 46 46 45 45 45 45 44 44 44 43 43 42 42 42 41 41 41 41 40 40 40 39 39 39 38 38 38 37 37 36 35 34 33 32 32 32 31 30 29 29 29 29 28 28 27 27 27 26 27 27 28 27 27 26 25 25 25 26 27 28 28 28 28 28 29 29 29 29 29 29 29 28 29 29 29 29 30
47 47 46 46 46 45 45 44 44 44 43 43 43 43 43 42 42 42 41 41 40 40 39 39 39 39 38 38 38 38 38 37 37 36 36 36 35 35 34 32 31 31 30 30 29 29 27 27 27 27 27 26 25 25 25 25 24 25 25 25 24 23 22 22 23 24 25 25 26 26 26 26 26 26 26 26 26 25 25 25 25 26 26 26 27
45 45 44 44 44 43 43 43 42 42 42 41 41 41 41 41 40 40 40 39 39 39 38 38 37 37 37 36 36 36 36 35 35 35 34 34 34 33 32 31 30 29 29 29 28 27 26 26 26 26 25 25 23 23 23 23 22 22 23 23 22 21 21 20 21 22 22 23 23 23 23 23 23 23 23 23 22 22 22 22 23 23 23 24 24
44 43 43 42 42 41 41 41 41 41 40 40 40 39 39 39 39 38 38 38 38 38 37 37 37 36 36 35 35 35 35 34 34 33 33 33 32 31 31 30 29 28 28 27 27 26 26 25 24 24 24 23 22 21 21 21 20 20 21 21 20 20 19 19 19 20 20 20 21 21 21 20 20 20 20 20 20 20 20 20 21 21 21 22 22
43 42 42 41 41 40 40 40 40 40 39 39 38 38 37 37 37 37 37 36 36 36 36 36 35 35 34 34 34 34 33 33 33 32 32 31 30 30 29 29 28 27 26 26 26 25 25 24 23 23 23 22 21 20 20 19 19 19 19 19 18 18 18 17 17 18 18 19 19 19 19 18 18 18 18 18 18 18 18 18 18 19 19 19 20
42 41 41 40 39 39 39 39 39 39 39 38 38 38 37 37 36 36 36 35 35 35 34 34 34 33 33 32 32 32 31 31 31 30 30 29 29 28 28 27 27 26 25 25 24 24 24 23 22 22 22 21 21 19 19 18 18 18 17 17 17 16 16 16 16 16 17 17 17 16 16 16 16 16 16 16 16 16 15 15 16 16 17 17 17
Wind_Direction
272 273 273 274 274 274 274 274 274 274 274 274 274 274 274 274 274 274 274 274 274 274 274 274 274 274 274 274 274 274 274 274 274 274 274 274 274 274 274 274 274 274 274 274 274 275 275 275 275 275 274 274 274 274 274 274 274 273 273 273 273 273 273 273 272 271 271 272 272 271 271 271 271 271 271 272 271 271 271 272 272 272 272 272 272
272 273 273 273 273 273 273 273 273 273 273 273 273 273 273 273 273 273 273 273 273 273 273 273 273 273 273 273 273 274 274 274 274 274 274 274 274 274 274 274 274 274 274 274 274 275 275 275 275 275 275 275 275 275 275 275 275 275 275 274 274 274 274 273 273 272 272 272 272 271 271 271 271 271 271 271 271 271 271 271 271 271 271 271 272
271 272 272 272 272 272 272 272 272 273 273 273 273 273 273 273 273 273 273 273 273 274 274 274 274 274 274 274 274 274 274 274 274 274 274 274 274 274 274 274 274 274 274 275 275 275 275 275 275 275 275 275 275 275 275 276 276 276 275 275 275 275 274 274 273 273 272 272 272 272 272 272 271 271 271 271 271 271 271 271 271 271 271 271 271
271 271 271 271 272 272 272 272 272 273 273 273 273 273 273 274 274 274 274 274 274 274 274 274 274 274 274 274 275 275 275 275 275 274 274 274 274 274 274 274 274 274 274 274 274 274 274 274 274 274 274 275 275 275 275 275 275 275 275 275 275 275 275 275 275 274 274 273 273 273 273 272 272 272 271 271 270 270 270 269 269 269 269 269 269
271 271 271 271 272 272 272 272 272 272 273 273 273 273 273 273 273 273 273 273 273 273 273 273 273 273 273 273 273 273 273 274 274 274 274 274 274 274 274 274 274 274 273 273 273 273 273 273 273 273 273 273 274 274 274 274 274 274 274 274 275 275 275 275 275 275 275 275 274 274 274 273 273 273 272 271 271 270 270 269 268 268 268 268 267
271 271 272 272 272 272 272 272 273 273 273 273 273 273 273 273 273 273 273 273 273 273 273 273 273 272 272 272 272 272 272 272 272 272 272 272 273 273 273 273 273 273 274 274 274 274 273 273 273 273 273 273 273 273 273 273 273 273 273 274 274 274 274 275 275 275 275 275 274 274 273 273 273 273 273 273 272 272 271 271 270 269 269 268 268
272 272 272 273 273 273 273 274 274 274 274 274 274 274 274 274 274 274 274 274 274 274 274 274 274 274 273 273 272 272 272 271 271 271 271 271 271 271 272 272 272 272 273 273 273 273 273 273 273 273 273 273 273 273 273 273 273 273 273 273 273 273 273 273 273 273 273 273 273 272 272 272 272 272 272 272 272 272 272 272 272 272 271 271 270
273 273 274 274 274 274 275 275 275 275 276 276 276 276 276 276 276 276 275 275 275 275 275 275 275 275 274 274 274 274 273 273 273 272 272 271 271 271 271 271 271 271 272 272 272 272 272 273 273 273 273 273 273 273 273 273 273 273 273 273 273 272 272 272 272 272 272 272 272 272 271 271 271 271 271 271 271 271 271 271 271 271 271 271 271
274 274 274 275 275 275 275 276 276 276 276 276 276 276 276 276 276 276 276 275 275 275 275 275 275 275 275 275 275 275 274 274 274 274 273 273 272 272 272 271 271 271 271 271 271 272 272 272 272 272 272 272 272 272 272 272 272 272 272 272 272 272 271 271 271 271 271 271 271 271 271 271 270 270 270 270 269 269 269 269 269 269 269 269 270
274 274 274 275 275 275 275 275 275 276 276 276 276 276 276 276 276 276 275 275 275 275 275 275 275 275 275 275 275 275 275 275 275 274 274 274 274 273 273 272 272 271 271 271 271 271 271 271 271 271 271 271 271 271 271 271 271 271 271 271 271 271 271 271 271 271 271 271 271 271 271 271 271 270 270 270 269 269 268 268 268 268 267 267 267
274 275 275 275 275 275 275 276 276 276 276 276 276 276 276 276 276 276 276 276 276 276 276 276 276 276 276 276 276 276 276 276 276 276 275 275 275 274 274 273 273 273 272 272 272 271 271 271 271 271 271 271 270 270 270 270 270 270 270 269 269 269 269 270 270 270 270 270 270 270 270 270 270 270 270 270 269 269 268 268 268 268 267 267 267
275 275 275 275 275 275 275 276 276 276 276 276 276 276 276 276 276 277 277 277 277 277 277 277 277 277 277 277 277 276 276 276 276 276 276 276 275 275 274 274 274 274 274 274 273 273 273 272 272 272 272 271 271 271 271 271 270 270 270 270 269 269 269 269 269 269 270 270 270 269 269 269 269 269 269 269 269 269 269 268 268 268 268 267 266
275 275 275 275 275 276 276 276 276 276 276 277 277 277 277 277 277 277 277 277 277 277 277 277 277 277 277 277 276 276 276 276 276 276 276 276 275 275 275 275 275 275 275 274 274 274 274 274 274 274 273 273 273 273 273 272 272 272 272 271 271 271 270 270 270 270 270 271 271 270 270 269 269 269 268 268 268 268 268 268 268 268 267 266 266
275 275 275 275 276 276 276 276 276 276 277 277 277 277 277 277 277 277 277 277 277 277 277 276 276 276 276 276 276 276 276 276 275 275 275 275 275 275 275 275 275 275 275 275 275 275 275 275 274 274 274 274 274 274 274 273 273 273 272 272 272 272 272 272 272 271 271 271 271 271 271 270 270 269 269 268 268 267 267 267 267 267 266 266 266
276 276 276 276 277 277 277 277 277 277 277 277 277 277 277 277 277 276 276 276 276 276 276 276 276 276 276 276 276 276 276 276 276 276 276 276 275 275 276 276 276 276 275 275 275 275 275 275 275 274 274 274 274 274 274 273 273 273 273 273 273 273 273 273 273 273 272 272 271 271 271 270 270 269 269 268 268 267 267 267 266 266 265 265 265
278 278 278 278 278 278 278 278 278 278 278 278 278 278 278 278 278 278 278 278 278 278 278 278 278 278 278 278 278 278 278 278 278 277 277 277 277 277 277 277 277 277 277 277 276 276 276 276 275 275 275 275 275 275 274 274 274 273 273 274 274 274 274 274 274 274 274 273 272 271 271 270 270 270 269 268 268 268 268 267 266 266 265 265 265
278 278 278 278 278 278 278 278 278 278 278 279 279 279 279 279 279 279 279 279 279 279 279 279 279 279 279 278 278 278 278 278 278 278 278 278 278 278 278 278 278 278 278 278 278 278 278 278 277 277 277 276 276 276 276 275 275 275 275 275 275 275 275 275 275 275 274 274 273 272 271 271 270 270 269 269 269 269 269 269 268 267 267 266 266
277 277 277 277 278 278 278 278 278 279 279 279 279 279 279 279 280 280 280 280 279 279 279 279 279 279 279 279 279 279 279 279 279 279 279 279 279 279 279 279 279 279 279 279 279 279 279 279 278 277 277 276 276 276 276 275 275 275 275 275 275 275 275 275 275 274 274 273 273 272 272 271 271 270 270 269 269 269 269 269 268 268 268 267 267
277 277 277 277 278 278 278 278 278 278 279 279 279 279 279 279 279 279 279 279 279 279 279 279 279 280 280 280 279 279 279 279 279 279 279 279 279 279 280 280 279 279 279 279 279 279 278 278 277 276 276 275 275 275 275 274 274 274 275 275 275 274 274 274 274 274 273 273 273 273 272 272 271 271 271 270 269 269 268 268 268 268 268 268 268
278 278 278 278 278 278 279 279 279 279 279 279 279 279 279 279 279 279 280 280 280 280 280 280 280 280 280 280 279 279 279 279 279 279 279 279 279 279 279 279 279 279 279 278 278 278 277 277 276 276 275 275 275 275 274 274 274 275 275 275 274 274 274 274 274 274 274 274 274 274 273 273 272 272 271 271 271 270 269 269 268 268 268 268 268
280 280 280 280 280 280 280 280 280 280 280 280 280 281 281 281 281 281 281 281 281 281 281 281 281 281 281 280 280 280 280 280 279 279 279 279 280 280 280 279 279 279 279 278 278 277 277 277 276 276 276 276 275 275 275 275 275 275 275 274 274 273 273 273 273 273 274 274 274 274 274 273 273 273 272 272 271 271 270 270 270 269 269 269 269
281 281 281 281 282 282 282 282 282 282 283 283 283 283 283 283 283 283 283 283 283 283 282 282 282 282 282 281 281 281 281 281 280 280 280 280 280 280 280 280 279 279 278 278 278 277 277 276 276 276 276 276 275 274 274 275 275 274 273 273 273 273 273 273 273 273 273 273 274 274 274 274 274 273 273 272 271 271 271 270 270 271 270 270 270
284 284 284 284 284 285 285 285 285 285 285 285 285 285 285 284 284 284 284 284 283 283 283 283 282 282 282 282 282 282 281 281 281 281 281 281 281 281 280 280 279 279 279 278 278 277 277 276 276 276 276 275 275 274 275 275 275 274 274 274 274 273 274 274 274 274 274 273 273 273 273 273 273 272 272 271 271 271 271 271 271 271 270 270 269
286 286 286 286 286 286 286 286 286 286 285 285 285 285 285 285 285 284 284 284 284 283 283 283 283 283 283 282 282 282 282 281 281 281 281 281 281 281 281 281 280 279 279 278 278 277 276 276 276 276 275 275 275 275 275 275 275 275 275 275 274 274 273 273 273 273 273 273 272 272 272 271 271 271 271 271 272 272 272 272 272 271 270 269 269
287 287 287 287 287 287 287 287 286 286 286 286 286 286 286 285 285 285 285 285 284 284 284 284 284 284 284 283 283 283 282 282 282 282 282 281 281 281 281 281 281 280 279 279 278 277 277 276 276 276 276 276 276 276 276 276 276 276 276 275 275 274 273 273 273 272 272 272 272 271 271 271 271 272 272 272 273 273 273 273 272 271 270 270 269
288 288 288 288 288 288 288 288 288 287 287 287 287 287 287 287 287 286 286 286 286 285 285 285 285 285 284 284 284 283 283 284 284 283 283 282 282 282 281 281 281 281 280 279 278 278 278 277 277 277 277 277 277 277 276 276 275 275 275 275 274 274 273 272 272 271 271 271 271 272 272 272 272 273 273 273 273 272 272 271 271 270 270 269 269
289 289 289 289 289 289 289 289 289 289 289 289 289 288 288 288 287 287 287 287 287 286 286 286 286 286 285 285 285 285 285 285 285 284 284 284 283 283 282 282 282 281 281 280 279 279 279 278 278 278 278 278 277 277 276 276 275 274 274 274 273 273 272 271 271 270 270 271 271 272 272 272 272 272 271 271 270 270 270 270 270 270 270 269 268
290 290 291 291 291 291 291 291 291 290 290 290 289 289 289 289 288 288 288 288 288 288 288 288 287 287 287 286 286 286 286 285 285 285 285 284 284 283 283 283 282 282 282 281 280 280 279 278 278 278 278 278 277 277 276 276 276 275 275 274 273 273 272 271 271 271 271 271 271 271 271 271 270 270 270 270 270 270 271 271 271 271 270 269 268
292 292 292 292 292 292 291 291 291 291 291 290 290 290 290 290 290 290 289 289 289 289 289 289 289 288 287 287 287 287 286 286 285 285 285 285 284 284 284 283 283 283 282 282 281 280 279 279 278 278 277 277 277 276 276 276 276 275 275 274 274 273 273 273 272 272 271 271 270 270 270 270 270 271 271 272 272 272 272 272 271 271 270 270 269
293 293 293 293 292 292 292 292 292 292 292 292 291 291 291 291 291 291 291 291 290 290 290 289 289 289 289 288 288 288 288 288 287 287 286 286 286 285 285 285 284 284 284 283 282 282 281 280 279 278 278 277 277 277 276 276 276 276 276 275 275 274 274 273 273 272 271 271 270 270 271 271 272 272 272 273 272 272 272 271 271 271 270 269 269
294 294 294 294 294 294 294 293 293 293 293 293 293 293 293 292 292 292 292 292 291 291 291 291 291 290 290 290 290 290 290 289 289 289 288 287 287 286 285 285 285 284 284 283 283 282 282 281 280 279 279 278 278 277 277 277 277 276 276 276 275 274 274 273 272 272 271 271 271 271 271 271 272 272 271 271 272 271 271 271 271 270 270 269 269
295 295 295 295 295 295 295 295 295 295 295 295 294 294 294 293 293 293 293 293 293 293 293 292 292 291 291 291 291 290 290 290 289 289 289 288 288 287 286 286 285 285 284 284 283 283 282 281 280 280 279 279 278 278 278 277 277 276 276 276 275 275 274 273 272 272 272 271 271 271 271 271 271 270 270 270 271 271 271 270 270 270 270 269 270
297 296 296 296 297 297 297 296 296 296 296 295 295 296 296 296 295 295 294 294 294 294 294 294 294 293 292 292 291 291 291 290 290 289 289 289 288 288 287 287 286 285 285 284 284 283 283 282 281 281 280 279 279 278 278 277 277 277 276 276 275 275 274 274 273 272 272 272 271 271 270 270 270 270 270 270 270 271 270 270 270 270 270 270 270
298 298 298 298 298 297 297 297 297 297 297 297 297 297 297 297 297 297 296 296 295 295 295 295 294 294 294 293 293 292 292 291 291 290 290 289 289 288 288 288 287 286 286 285 285 284 283 283 282 282 281 280 280 279 279 278 278 277 277 276 275 275 274 274 273 273 272 272 271 271 270 270 270 271 271 271 271 270 270 270 269 269 270 270 269
299 299 299 299 298 298 298 298 298 298 299 299 299 299 299 298 298 298 298 297 296 296 295 294 294 293 293 293 293 292 292 292 292 291 291 290 290 290 289 288 288 288 287 286 286 285 285 284 283 282 282 281 280 280 279 279 278 277 277 276 276 275 274 274 274 273 272 272 271 270 270 270 270 270 270 270 270 269 269 269 269 269 268 268 268
300 300 300 300 300 300 300 300 300 300 300 299 299 299 299 299 299 298 298 298 297 297 296 296 295 295 294 293 293 293 293 292 292 292 292 291 291 291 290 289 289 289 288 288 287 287 286 285 285 284 283 282 281 281 280 279 279 278 277 277 276 275 275 274 274 273 273 272 272 271 270 270 270 270 270 269 269 269 269 268 268 268 268 267 267
301 301 301 301 301 301 301 301 300 300 300 300 300 300 300 299 299 299 298 298 298 298 297 297 297 296 296 296 296 296 295 294 294 294 293 293 293 292 291 291 290 290 289 289 288 288 288 287 286 285 284 283 282 281 281 280 279 279 278 277 277 276 275 275 274 274 273 272 271 271 270 270 269 269 269 269 269 269 268 268 268 268 267 267 267
302 302 302 302 302 302 301 301 301 301 301 301 300 300 300 300 300 300 299 299 299 299 299 299 298 298 298 298 298 297 297 296 296 295 295 295 294 293 293 292 292 292 291 291 290 290 289 289 288 287 286 284 283 282 281 280 280 279 279 278 278 277 276 276 275 274 273 273 272 271 270 269 269 268 268 268 268 268 267 267 267 267 266 266 265
303 303 303 303 302 302 302 302 302 302 301 301 301 301 301 301 301 301 301 301 301 301 301 301 301 300 300 300 300 300 299 298 298 297 297 296 296 295 295 295 294 294 294 293 293 292 291 291 290 289 287 286 284 283 282 281 280 280 279 278 278 277 276 276 275 274 274 273 272 271 271 270 269 268 268 268 268 267 267 267 266 266 266 265 265
304 303 303 303 303 303 303 303 303 302 302 302 302 302 302 302 302 302 302 302 302 302 302 302 302 302 302 302 302 301 301 300 300 299 299 298 298 297 297 297 297 296 296 295 295 294 293 293 292 291 289 288 286 284 283 282 281 281 280 279 278 277 276 275 275 274 273 272 271 271 270 270 269 268 268 268 268 268 267 267 266 266 266 265 265
304 304 304 304 304 304 304 303 303 303 303 303 303 303 303 304 304 304 304 304 304 304 304 304 304 304 304 304 303 303 303 303 302 301 301 301 300 300 299 299 299 298 298 298 297 296 296 295 294 292 291 290 288 286 284 283 282 282 281 280 279 278 276 275 275 274 273 272 271 270 270 270 269 269 268 268 268 267 267 267 266 266 266 265 264
305 305 305 305 305 304 304 304 304 304 305 305 305 305 305 305 305 305 305 305 305 305 305 305 305 305 306 306 306 306 306 306 305 304 303 303 303 303 302 302 301 301 300 300 299 299 298 297 296 295 293 291 290 289 287 286 284 284 283 281 280 279 277 276 275 275 274 273 272 271 271 270 270 269 268 268 268 267 267 266 266 265 265 264 264
306 306 306 305 305 305 305 305 305 306 306 306 306 306 307 307 307 306 306 306 306 306 307 307 308 308 308 309 309 309 309 308 307 307 306 306 305 306 305 305 304 303 303 303 302 301 300 299 298 297 295 294 292 291 289 288 286 285 283 282 281 280 278 277 276 276 275 275 274 274 273 272 271 270 269 268 268 267 266 266 265 265 264 263 263
307 307 306 306 306 306 307 307 307 307 307 308 308 308 308 308 308 308 308 308 308 309 309 310 310 310 311 311 311 310 310 310 309 309 308 308 308 308 308 308 307 306 306 305 305 304 302 301 300 299 297 296 295 293 292 290 288 286 284 283 282 281 280 279 278 277 277 276 276 275 274 273 271 270 269 268 267 266 266 265 265 264 264 263 263
308 307 308 308 308 308 309 309 309 309 310 310 310 310 310 310 310 310 310 311 311 311 312 312 312 312 312 312 312 312 311 311 311 310 310 310 310 310 310 310 310 309 308 308 307 306 305 304 302 301 299 298 297 295 294 292 290 288 286 285 284 283 282 281 279 278 277 277 276 275 273 272 270 269 268 267 267 267 266 266 266 265 265 264 264
309 309 309 309 310 310 311 311 311 311 311 311 311 311 311 311 312 312 312 313 313 314 314 314 314 314 314 314 314 313 313 313 312 312 312 312 312 312 312 312 312 312 311 310 310 309 308 306 305 303 302 301 299 298 296 294 292 291 289 288 287 286 284 282 280 278 277 276 275 274 273 272 271 270 270 269 269 269 268 267 267 266 265 264 264
310 311 311 311 311 312 312 312 312 312 313 313 313 313 313 314 314 314 314 314 314 315 315 315 315 316 316 316 316 316 315 314 314 314 314 313 313 313 314 315 315 314 313 312 312 312 311 310 308 306 305 303 302 300 299 297 295 293 292 291 290 289 286 283 281 279 278 277 277 276 275 274 273 273 273 272 271 271 269 268 267 265 264 263 263
312 312 312 312 313 313 314 314 314 314 315 315 315 315 315 315 315 315 316 316 317 317 317 318 318 318 318 318 317 317 316 316 316 315 315 315 315 315 316 317 317 316 315 314 314 314 315 313 311 309 308 306 305 303 301 300 298 296 294 293 292 291 288 285 283 281 280 280 279 279 278 277 276 275 274 273 272 271 269 267 265 264 262 262 261
313 314 314 314 315 315 315 315 316 316 316 317 317 317 317 317 317 317 318 318 319 319 320 320 320 320 320 320 319 319 318 318 318 318 317 317 318 318 319 319 318 318 317 317 317 317 318 317 315 312 311 309 309 307 305 303 301 299 296 295 294 293 291 288 285 283 282 281 280 280 279 278 277 275 274 273 271 270 268 266 265 263 262 261 260
315 315 315 316 316 316 317 317 318 318 319 319 319 319 320 320 320 320 320 320 320 321 321 321 321 321 322 322 321 321 320 320 319 319 319 319 320 320 321 321 320 320 320 319 319 320 320 320 318 316 314 313 313 312 310 308 305 303 300 298 297 296 294 290 287 284 283 282 282 282 282 281 279 278 276 274 273 272 270 268 267 265 264 262 261
316 316 316 317 318 318 319 320 320 321 321 321 322 322 322 322 322 322 321 321 322 322 322 322 322 323 323 323 323 322 321 321 320 320 320 321 322 323 323 322 322 322 322 322 322 323 323 322 321 319 317 317 316 316 314 312 310 307 305 303 302 301 298 294 290 287 286 286 286 287 286 286 284 282 279 278 276 275 273 271 269 266 265 263 262
Height
10252 10250 10249 10247 10245 10243 10241 10239 10237 10235 10234 10232 10230 10228 10225 10224 10222 10220 10218 10217 10215 10213 10211 10209 10206 10204 10201 10198 10197 10194 10192 10190 10188 10186 10184 10181 10179 10177 10174 10172 10171 10169 10167 10164 10162 10161 10160 10159 10157 10155 10153 10151 10151 10149 10148 10147 10146 10146 10146 10144 10144 10142 10141 10143 10146 10160 10170 10161 10155 10163 10161 10153 10155 10156 10150 10150 10151 10150 10149 10150 10149 10147 10147 10145 10145
10237 10235 10233 10231 10229 10226 10223 10221 10219 10217 10216 10213 10212 10210 10208 10207 10205 10203 10201 10199 10198 10196 10193 10192 10189 10187 10184 10181 10178 10176 10173 10171 10169 10167 10165 10162 10160 10157 10155 10153 10152 10151 10149 10147 10145 10143 10141 10140 10138 10136 10134 10131 10130 10128 10127 10126 10124 10124 10124 10122 10122 10121 10119 10118 10121 10129 10142 10144 10135 10136 10140 10134 10132 10138 10134 10130 10133 10132 10129 10131 10131 10129 10129 10129 10127
10220 10218 10216 10213 10211 10208 10206 10203 10201 10199 10198 10196 10194 10192 10190 10189 10187 10185 10183 10180 10178 10177 10174 10173 10170 10168 10165 10162 10160 10157 10154 10152 10150 10147 10145 10142 10140 10137 10135 10133 10133 10132 10131 10129 10127 10125 10123 10121 10119 10117 10115 10113 10111 10109 10107 10106 10104 10102 10102 10099 10097 10098 10096 10094 10096 10101 10111 10122 10120 10113 10114 10113 10110 10114 10114 10110 10112 10113 10111 10110 10111 10109 10110 10110 10110
10203 10200 10198 10195 10193 10191 10188 10186 10184 10182 10180 10178 10176 10174 10172 10170 10168 10166 10164 10161 10159 10158 10156 10154 10152 10149 10147 10143 10141 10138 10135 10132 10130 10127 10124 10122 10120 10118 10116 10114 10113 10112 10111 10110 10109 10107 10105 10103 10101 10098 10096 10095 10093 10091 10089 10087 10085 10082 10080 10078 10075 10074 10074 10071 10071 10075 10081 10093 10101 10096 10090 10089 10087 10087 10090 10089 10089 10091 10091 10090 10091 10090 10091 10091 10091
10185 10183 10180 10178 10175 10172 10170 10168 10166 10164 10162 10160 10158 10156 10154 10152 10149 10147 10145 10142 10140 10139 10137 10136 10134 10132 10129 10126 10124 10120 10117 10114 10111 10108 10105 10102 10100 10098 10096 10094 10093 10091 10090 10090 10089 10089 10087 10086 10084 10080 10078 10077 10076 10073 10070 10068 10065 10063 10060 10059 10057 10053 10053 10051 10049 10051 10055 10063 10075 10077 10069 10066 10064 10062 10063 10064 10064 10066 10067 10067 10068 10068 10070 10071 10071
10167 10165 10163 10160 10157 10155 10153 10151 10149 10147 10145 10143 10141 10138 10136 10133 10131 10128 10125 10123 10121 10118 10116 10115 10113 10111 10109 10108 10106 10103 10100 10097 10093 10090 10086 10083 10081 10080 10078 10076 10074 10071 10069 10068 10067 10067 10066 10065 10063 10060 10058 10058 10057 10054 10052 10049 10046 10045 10043 10042 10040 10037 10035 10035 10031 10030 10032 10038 10047 10053 10051 10046 10041 10039 10039 10039 10040 10042 10041 10041 10042 10044 10046 10048 10049
10150 10147 10145 10143 10140 10137 10135 10133 10131 10129 10127 10124 10121 10119 10117 10114 10112 10109 10106 10104 10101 10098 10095 10092 10090 10088 10086 10085 10083 10082 10080 10077 10074 10071 10067 10065 10064 10062 10061 10059 10057 10055 10052 10050 10048 10047 10046 10044 10041 10039 10037 10035 10035 10033 10031 10030 10028 10027 10026 10023 10021 10019 10017 10016 10014 10011 10012 10016 10021 10027 10031 10029 10023 10019 10019 10019 10020 10021 10019 10016 10019 10022 10021 10021 10025
10133 10131 10128 10126 10122 10120 10117 10115 10113 10110 10108 10105 10102 10100 10097 10094 10092 10089 10086 10084 10081 10078 10075 10072 10069 10066 10064 10062 10061 10059 10057 10055 10052 10049 10045 10045 10044 10044 10043 10041 10039 10038 10036 10034 10032 10030 10028 10026 10023 10020 10017 10014 10013 10012 10010 10010 10008 10007 10007 10003 10001 10000 9998 9995 9993 9991 9991 9994 9998 10003 10007 10009 10007 10003 9999 9999 10001 10003 10001 9997 10000 10003 10000 9997 10002
10117 10115 10112 10109 10106 10103 10100 10097 10094 10092 10089 10086 10084 10081 10079 10076 10073 10070 10067 10065 10062 10059 10056 10053 10050 10047 10044 10042 10040 10038 10036 10033 10030 10026 10023 10021 10021 10022 10022 10022 10021 10021 10020 10017 10015 10013 10011 10008 10005 10001 9998 9996 9994 9993 9991 9990 9988 9987 9986 9982 9978 9978 9977 9974 9972 9971 9971 9972 9977 9983 9985 9987 9989 9985 9980 9978 9978 9980 9983 9981 9980 9985 9986 9982 9983
10102 10099 10096 10093 10090 10087 10084 10080 10077 10074 10071 10068 10066 10063 10061 10058 10055 10052 10049 10046 10043 10041 10038 10035 10032 10030 10027 10024 10021 10018 10015 10012 10008 10004 10001 9998 9998 9998 9998 9999 10000 10000 10000 9999 9997 9995 9992 9989 9986 9982 9980 9978 9976 9974 9972 9969 9967 9965 9964 9962 9958 9956 9955 9954 9952 9951 9951 9953 9958 9962 9963 9966 9969 9964 9957 9957 9954 9955 9961 9963 9960 9964 9968 9966 9967
10086 10082 10080 10078 10074 10070 10067 10064 10060 10057 10054 10051 10048 10046 10043 10040 10037 10034 10031 10028 10025 10022 10020 10017 10014 10011 10009 10006 10003 9999 9995 9992 9987 9982 9979 9976 9973 9973 9974 9976 9977 9976 9976 9976 9975 9973 9970 9968 9966 9963 9960 9958 9955 9952 9950 9948 9947 9944 9943 9941 9939 9937 9935 9933 9932 9932 9931 9934 9940 9944 9944 9945 9948 9943 9936 9934 9931 9929 9936 9941 9940 9941 9945 9947 9949
10069 10066 10063 10061 10058 10054 10052 10048 10044 10041 10038 10035 10032 10029 10026 10022 10019 10016 10013 10010 10007 10004 10001 9998 9995 9992 9990 9987 9984 9981 9977 9972 9966 9961 9958 9954 9950 9948 9950 9955 9957 9955 9954 9953 9951 9949 9948 9946 9944 9940 9936 9933 9931 9930 9928 9926 9925 9922 9920 9918 9916 9916 9915 9914 9914 9913 9912 9913 9918 9924 9925 9924 9924 9922 9917 9913 9909 9908 9911 9917 9920 9920 9923 9926 9925
10053 10050 10047 10045 10042 10038 10036 10032 10028 10025 10021 10018 10015 10012 10009 10006 10002 9999 9996 9993 9990 9986 9983 9980 9977 9973 9970 9968 9964 9961 9958 9953 9948 9942 9937 9933 9928 9923 9926 9935 9939 9936 9933 9931 9928 9927 9926 9924 9921 9917 9913 9909 9907 9907 9905 9903 9901 9898 9895 9894 9892 9891 9891 9892 9894 9895 9894 9894 9894 9899 9903 9901 9899 9900 9898 9891 9888 9889 9891 9895 9899 9899 9898 9899 9899
10037 10034 10031 10029 10026 10023 10020 10016 10013 10009 10006 10002 9999 9996 9992 9989 9985 9982 9979 9976 9972 9968 9965 9961 9958 9955 9951 9948 9945 9942 9938 9934 9929 9924 9918 9913 9908 9902 9905 9915 9919 9916 9913 9910 9908 9907 9905 9903 9900 9897 9893 9888 9885 9884 9881 9879 9878 9874 9871 9870 9869 9869 9869 9869 9870 9872 9874 9875 9875 9876 9878 9875 9873 9877 9877 9869 9864 9868 9873 9874 9875 9874 9871 9874 9878
10021 10018 10015 10012 10009 10006 10003 10000 9996 9993 9989 9985 9982 9978 9975 9971 9967 9963 9961 9957 9953 9950 9947 9943 9940 9936 9932 9929 9926 9923 9919 9913 9909 9904 9898 9891 9886 9883 9889 9896 9896 9894 9892 9889 9887 9887 9884 9881 9879 9876 9873 9868 9864 9861 9858 9856 9854 9851 9849 9850 9850 9850 9849 9848 9848 9847 9849 9851 9853 9855 9855 9851 9849 9851 9851 9846 9842 9846 9852 9851 9850 9849 9849 9853 9857
10006 10002 9998 9995 9992 9989 9985 9982 9978 9974 9971 9967 9963 9960 9956 9952 9948 9945 9942 9938 9934 9931 9928 9924 9921 9917 9913 9909 9906 9903 9899 9893 9888 9883 9876 9869 9863 9865 9871 9875 9873 9872 9870 9867 9865 9864 9863 9861 9858 9856 9853 9848 9843 9838 9835 9833 9830 9828 9830 9831 9831 9831 9829 9827 9826 9824 9824 9824 9826 9828 9829 9828 9827 9825 9824 9822 9823 9826 9826 9824 9826 9827 9829 9833 9836
9992 9988 9983 9979 9976 9972 9968 9965 9961 9957 9953 9949 9945 9941 9937 9934 9930 9927 9923 9919 9915 9911 9908 9904 9900 9896 9893 9889 9886 9884 9880 9873 9868 9863 9855 9847 9843 9846 9852 9854 9852 9850 9849 9846 9842 9841 9842 9839 9835 9833 9831 9826 9822 9817 9812 9808 9806 9807 9810 9812 9812 9810 9807 9806 9804 9801 9799 9798 9798 9801 9803 9804 9803 9802 9801 9802 9805 9806 9802 9799 9801 9804 9807 9811 9814
9977 9973 9969 9965 9961 9957 9953 9950 9946 9942 9938 9934 9930 9925 9921 9917 9913 9909 9905 9901 9897 9893 9888 9885 9880 9875 9873 9870 9866 9863 9860 9854 9849 9844 9837 9828 9822 9826 9833 9835 9833 9831 9828 9826 9822 9821 9820 9817 9811 9808 9807 9804 9800 9796 9790 9785 9783 9786 9791 9794 9793 9789 9786 9785 9782 9778 9775 9773 9773 9777 9780 9780 9780 9779 9779 9781 9784 9786 9783 9779 9779 9781 9784 9789 9793
9963 9959 9955 9951 9947 9943 9939 9935 9931 9927 9923 9918 9914 9910 9906 9902 9897 9892 9888 9884 9880 9875 9870 9866 9862 9857 9853 9850 9846 9843 9839 9835 9831 9825 9820 9810 9803 9806 9814 9817 9815 9812 9810 9808 9805 9802 9799 9794 9786 9782 9783 9783 9780 9775 9770 9763 9762 9769 9774 9775 9774 9770 9766 9765 9761 9756 9754 9751 9751 9755 9758 9758 9758 9757 9757 9759 9761 9763 9763 9761 9760 9762 9764 9769 9773
9948 9943 9939 9935 9931 9927 9924 9920 9915 9911 9906 9902 9898 9893 9889 9886 9881 9876 9872 9867 9862 9858 9853 9848 9844 9839 9835 9831 9827 9823 9819 9816 9812 9807 9803 9795 9787 9787 9795 9798 9796 9794 9792 9790 9787 9782 9776 9770 9764 9759 9759 9761 9760 9755 9747 9741 9746 9755 9757 9754 9754 9751 9746 9744 9741 9737 9735 9733 9731 9733 9734 9735 9736 9736 9737 9738 9738 9739 9740 9740 9742 9744 9747 9752 9754
9931 9927 9923 9919 9915 9911 9907 9903 9899 9894 9889 9885 9881 9875 9871 9868 9863 9858 9854 9849 9843 9839 9834 9829 9825 9820 9816 9811 9807 9803 9799 9797 9794 9790 9786 9780 9771 9769 9775 9779 9776 9774 9773 9771 9766 9761 9756 9749 9743 9738 9737 9740 9740 9734 9725 9723 9733 9739 9735 9732 9735 9732 9725 9724 9724 9721 9718 9715 9713 9713 9713 9714 9714 9715 9717 9719 9718 9717 9718 9720 9723 9726 9730 9734 9737
9915 9911 9906 9902 9898 9893 9889 9885 9881 9877 9872 9868 9863 9858 9853 9849 9844 9840 9835 9830 9825 9820 9815 9810 9806 9801 9796 9791 9787 9784 9780 9777 9775 9772 9769 9763 9755 9750 9753 9758 9756 9753 9754 9752 9747 9742 9737 9731 9724 9719 9717 9719 9720 9713 9707 9711 9716 9715 9711 9714 9718 9715 9709 9708 9707 9705 9702 9699 9697 9696 9696 9695 9695 9695 9697 9698 9697 9697 9699 9702 9707 9709 9712 9715 9717
9898 9894 9889 9885 9881 9876 9872 9868 9864 9860 9856 9852 9847 9842 9838 9832 9827 9822 9818 9813 9808 9802 9797 9792 9788 9784 9779 9774 9769 9765 9762 9759 9756 9754 9751 9747 9740 9733 9732 9736 9737 9735 9735 9734 9729 9724 9718 9712 9707 9702 9698 9698 9697 9694 9694 9698 9697 9692 9692 9698 9701 9699 9697 9693 9690 9687 9685 9683 9681 9680 9679 9677 9675 9676 9677 9676 9676 9678 9681 9685 9690 9692 9694 9696 9697
9883 9878 9874 9870 9866 9861 9857 9853 9849 9845 9841 9836 9832 9827 9822 9817 9811 9806 9801 9796 9791 9785 9780 9775 9772 9768 9763 9758 9752 9748 9744 9741 9739 9737 9735 9731 9725 9718 9714 9715 9716 9716 9716 9715 9710 9705 9699 9695 9691 9686 9681 9679 9678 9678 9679 9681 9679 9676 9677 9679 9681 9682 9682 9679 9674 9671 9667 9664 9664 9663 9661 9658 9657 9658 9659 9659 9659 9662 9665 9668 9672 9674 9675 9677 9677
9868 9864 9859 9855 9851 9846 9841 9837 9833 9829 9825 9821 9817 9812 9807 9801 9794 9789 9784 9779 9774 9769 9764 9760 9756 9752 9747 9742 9736 9731 9727 9725 9723 9721 9718 9715 9710 9704 9699 9696 9695 9696 9698 9696 9692 9686 9682 9679 9675 9669 9664 9662 9663 9663 9663 9663 9663 9662 9660 9660 9662 9663 9663 9662 9660 9655 9649 9646 9645 9645 9643 9641 9642 9643 9644 9644 9645 9647 9649 9652 9654 9655 9656 9658 9659
9854 9849 9845 9840 9836 9831 9826 9821 9816 9812 9808 9804 9800 9796 9791 9785 9778 9772 9767 9762 9756 9751 9748 9744 9740 9736 9730 9725 9720 9715 9712 9709 9707 9704 9701 9697 9693 9689 9685 9681 9678 9677 9678 9677 9675 9670 9666 9663 9659 9654 9649 9648 9648 9648 9647 9646 9647 9646 9644 9643 9644 9645 9646 9645 9643 9638 9634 9630 9629 9629 9627 9626 9628 9630 9630 9630 9630 9630 9632 9634 9635 9635 9638 9641 9642
9841 9835 9830 9825 9821 9815 9810 9805 9800 9795 9791 9786 9783 9779 9775 9769 9763 9757 9752 9746 9740 9735 9732 9729 9725 9719 9713 9708 9704 9701 9697 9695 9691 9687 9683 9680 9677 9673 9669 9666 9663 9660 9659 9659 9658 9656 9652 9647 9643 9640 9636 9633 9633 9632 9630 9629 9629 9629 9629 9628 9627 9628 9628 9627 9625 9622 9619 9617 9615 9615 9613 9612 9613 9614 9614 9613 9613 9613 9616 9619 9618 9618 9621 9624 9624
9827 9822 9816 9811 9805 9800 9795 9790 9784 9779 9774 9770 9767 9764 9759 9753 9747 9742 9737 9732 9726 9721 9717 9714 9710 9704 9698 9694 9690 9686 9683 9680 9677 9672 9668 9665 9661 9658 9654 9651 9648 9645 9643 9643 9642 9640 9637 9633 9629 9626 9622 9619 9617 9616 9614 9612 9612 9613 9613 9613 9612 9611 9611 9610 9609 9607 9605 9604 9603 9601 9598 9596 9596 9597 9598 9598 9598 9600 9603 9605 9604 9604 9605 9607 9607
9813 9808 9803 9797 9791 9786 9781 9776 9771 9765 9760 9755 9752 9750 9747 9739 9731 9725 9722 9717 9712 9708 9704 9700 9695 9688 9684 9681 9677 9671 9667 9665 9663 9659 9655 9651 9647 9644 9640 9636 9633 9631 9629 9627 9625 9624 9622 9620 9616 9613 9609 9605 9602 9601 9599 9598 9597 9597 9598 9597 9597 9596 9596 9595 9594 9593 9591 9590 9588 9586 9584 9582 9582 9584 9585 9585 9586 9588 9591 9591 9590 9590 9590 9590 9591
9799 9794 9789 9783 9778 9772 9768 9762 9757 9752 9747 9741 9736 9735 9734 9729 9720 9711 9706 9702 9697 9694 9691 9688 9682 9674 9669 9667 9664 9659 9654 9650 9648 9645 9641 9638 9635 9631 9626 9623 9620 9617 9615 9612 9610 9608 9608 9606 9602 9598 9595 9592 9589 9587 9586 9585 9583 9583 9583 9583 9583 9582 9582 9581 9580 9578 9576 9575 9574 9573 9571 9570 9571 9572 9573 9572 9572 9575 9577 9577 9577 9576 9575 9575 9575
9786 9781 9776 9770 9764 9759 9754 9749 9743 9738 9733 9728 9722 9718 9717 9717 9711 9702 9693 9688 9684 9680 9678 9675 9669 9663 9657 9653 9650 9647 9642 9637 9633 9630 9626 9623 9621 9618 9614 9610 9607 9604 9601 9599 9597 9595 9593 9591 9589 9585 9582 9579 9577 9574 9573 9572 9571 9570 9570 9570 9569 9568 9567 9567 9565 9563 9562 9562 9562 9561 9559 9558 9559 9560 9560 9559 9559 9560 9563 9564 9563 9562 9561 9561 9561
9773 9768 9763 9757 9751 9746 9741 9735 9730 9724 9719 9715 9710 9704 9700 9699 9699 9694 9685 9676 9670 9666 9664 9662 9657 9651 9646 9642 9637 9634 9630 9626 9621 9617 9613 9610 9608 9604 9601 9598 9595 9592 9588 9586 9585 9582 9580 9578 9576 9573 9571 9568 9564 9562 9561 9560 9559 9557 9557 9556 9556 9555 9553 9553 9552 9551 9550 9551 9550 9549 9547 9546 9546 9546 9547 9547 9547 9548 9550 9551 9550 9549 9548 9548 9549
9761 9756 9751 9745 9740 9734 9729 9723 9718 9713 9707 9702 9698 9693 9688 9683 9681 9680 9676 9669 9661 9654 9650 9648 9644 9639 9634 9631 9626 9622 9618 9614 9610 9606 9602 9599 9596 9592 9588 9585 9583 9580 9577 9574 9572 9570 9568 9565 9564 9562 9559 9557 9553 9550 9549 9548 9547 9546 9545 9544 9544 9542 9540 9539 9540 9539 9539 9539 9538 9537 9536 9534 9534 9534 9535 9536 9536 9537 9538 9538 9538 9537 9537 9537 9539
9748 9743 9738 9733 9728 9723 9718 9712 9707 9702 9696 9691 9686 9681 9677 9671 9667 9664 9661 9658 9653 9647 9640 9636 9632 9627 9622 9619 9615 9611 9607 9603 9599 9595 9591 9588 9585 9581 9577 9574 9571 9569 9566 9563 9561 9559 9556 9554 9552 9550 9548 9546 9543 9540 9537 9536 9536 9535 9534 9533 9532 9530 9529 9528 9528 9528 9528 9527 9527 9526 9525 9524 9523 9523 9524 9525 9526 9526 9526 9526 9526 9526 9526 9526 9527
9736 9731 9726 9721 9717 9712 9706 9701 9696 9691 9685 9680 9675 9670 9666 9661 9656 9652 9648 9644 9641 9637 9632 9627 9623 9619 9614 9609 9605 9601 9597 9592 9588 9584 9581 9577 9574 9571 9567 9563 9560 9558 9555 9553 9550 9548 9545 9543 9541 9540 9538 9535 9532 9530 9527 9525 9524 9524 9523 9522 9521 9519 9518 9517 9516 9517 9517 9516 9516 9515 9515 9514 9513 9513 9514 9515 9515 9514 9515 9515 9515 9515 9516 9516 9516
9725 9720 9715 9710 9705 9701 9695 9690 9685 9680 9675 9670 9665 9661 9656 9651 9646 9642 9638 9633 9629 9625 9621 9616 9612 9608 9604 9600 9596 9592 9588 9584 9579 9575 9571 9568 9564 9560 9557 9553 9550 9547 9545 9543 9540 9537 9535 9533 9531 9529 9528 9525 9523 9520 9518 9515 9514 9513 9513 9512 9510 9509 9508 9507 9506 9506 9506 9506 9505 9505 9505 9504 9503 9503 9503 9503 9503 9503 9504 9505 9505 9505 9505 9506 9506
9715 9710 9704 9699 9694 9690 9685 9680 9675 9670 9666 9661 9656 9651 9646 9642 9637 9632 9628 9624 9619 9615 9611 9607 9602 9598 9594 9590 9586 9582 9578 9574 9570 9566 9562 9558 9555 9551 9547 9544 9541 9538 9536 9533 9530 9528 9526 9523 9521 9520 9518 9516 9514 9511 9508 9506 9505 9504 9503 9502 9501 9500 9499 9498 9497 9496 9496 9496 9495 9495 9495 9495 9494 9493 9493 9493 9493 9494 9494 9495 9495 9495 9495 9496 9496
9705 9700 9695 9690 9685 9680 9676 9671 9666 9662 9657 9652 9647 9642 9638 9633 9628 9624 9619 9614 9610 9605 9601 9597 9593 9589 9585 9581 9577 9573 9570 9566 9561 9557 9553 9550 9546 9542 9539 9535 9532 9529 9527 9524 9522 9519 9517 9514 9512 9510 9509 9507 9505 9502 9500 9498 9496 9495 9494 9493 9492 9491 9490 9489 9488 9487 9487 9486 9486 9485 9485 9485 9485 9484 9483 9483 9484 9484 9484 9485 9485 9485 9486 9486 9486
9696 9690 9686 9681 9676 9672 9667 9662 9657 9653 9648 9643 9638 9634 9629 9625 9620 9615 9611 9606 9601 9597 9593 9588 9584 9580 9576 9572 9568 9565 9561 9558 9553 9549 9545 9542 9538 9534 9531 9527 9524 9521 9519 9516 9514 9511 9509 9506 9504 9502 9500 9498 9497 9495 9492 9490 9488 9486 9485 9485 9484 9483 9481 9480 9479 9479 9478 9478 9477 9476 9476 9476 9476 9476 9475 9474 9475 9475 9476 9476 9476 9476 9476 9477 9478
9687 9682 9677 9673 9668 9663 9658 9653 9649 9644 9640 9635 9630 9626 9621 9616 9612 9608 9603 9598 9593 9589 9585 9580 9576 9572 9568 9564 9561 9557 9554 9550 9546 9542 9538 9534 9531 9527 9523 9520 9517 9514 9511 9509 9506 9504 9502 9499 9497 9494 9492 9490 9489 9487 9485 9483 9480 9479 9478 9477 9476 9475 9474 9472 9471 9470 9470 9469 9469 9468 9468 9468 9468 9468 9467 9467 9467 9467 9468 9468 9468 9468 9468 9469 9469
9679 9674 9670 9665 9660 9655 9651 9646 9641 9636 9632 9627 9623 9618 9613 9609 9604 9600 9595 9590 9586 9582 9577 9573 9569 9565 9560 9557 9553 9549 9546 9543 9539 9535 9530 9527 9523 9521 9517 9513 9510 9507 9505 9502 9500 9497 9495 9492 9490 9488 9485 9483 9482 9480 9478 9476 9474 9472 9470 9470 9469 9468 9467 9465 9464 9463 9462 9462 9462 9461 9461 9460 9460 9460 9460 9460 9459 9460 9460 9460 9460 9460 9461 9461 9461
9672 9667 9662 9657 9653 9648 9643 9638 9633 9629 9624 9619 9615 9610 9606 9602 9597 9593 9588 9583 9579 9575 9570 9566 9562 9558 9554 9550 9546 9542 9539 9535 9532 9528 9524 9520 9517 9514 9511 9507 9504 9501 9498 9496 9494 9491 9488 9486 9484 9481 9479 9477 9475 9473 9472 9470 9468 9466 9464 9463 9462 9461 9460 9459 9457 9456 9456 9455 9455 9455 9454 9454 9453 9453 9453 9453 9453 9453 9453 9453 9453 9453 9453 9454 9454
9664 9659 9655 9650 9646 9641 9636 9632 9627 9622 9617 9612 9608 9603 9599 9595 9590 9586 9582 9577 9573 9568 9564 9559 9555 9551 9547 9543 9539 9536 9532 9529 9525 9521 9518 9514 9510 9507 9505 9502 9498 9495 9493 9490 9488 9485 9483 9480 9478 9476 9473 9471 9469 9467 9466 9464 9462 9460 9458 9457 9456 9455 9454 9453 9452 9451 9450 9449 9449 9448 9448 9448 9447 9447 9447 9446 9446 9446 9447 9447 9447 9447 9447 9447 9447
9656 9652 9647 9643 9639 9634 9629 9625 9620 9616 9611 9606 9602 9597 9592 9588 9583 9579 9575 9571 9566 9562 9558 9553 9549 9545 9541 9537 9533 9530 9526 9523 9519 9515 9512 9508 9505 9502 9499 9496 9493 9490 9487 9485 9482 9480 9477 9475 9472 9470 9468 9466 9464 9462 9460 9458 9457 9455 9453 9451 9450 9449 9448 9447 9446 9445 9444 9443 9443 9443 9442 9442 9442 9441 9441 9441 9440 9441 9441 9441 9441 9441 9441 9441 9441
9649 9645 9640 9636 9631 9627 9623 9618 9613 9609 9604 9600 9595 9591 9586 9582 9577 9573 9569 9565 9560 9556 9552 9548 9544 9540 9536 9532 9528 9525 9521 9517 9514 9510 9506 9503 9499 9496 9494 9491 9488 9485 9482 9479 9477 9475 9472 9470 9467 9465 9463 9461 9459 9457 9455 9453 9452 9450 9448 9446 9445 9445 9444 9443 9442 9441 9439 9439 9438 9437 9437 9437 9436 9436 9435 9435 9435 9435 9435 9435 9435 9436 9436 9436 9436
9643 9638 9634 9629 9625 9621 9616 9612 9608 9603 9599 9594 9590 9585 9581 9576 9572 9568 9563 9559 9555 9551 9547 9543 9539 9535 9531 9527 9523 9520 9516 9512 9509 9505 9502 9498 9495 9492 9489 9486 9483 9481 9478 9475 9472 9470 9468 9465 9463 9460 9458 9457 9454 9452 9451 9449 9447 9445 9444 9442 9441 9440 9439 9438 9437 9436 9435 9434 9433 9433 9432 9432 9431 9431 9431 9431 9431 9431 9431 9431 9431 9431 9431 9431 9431
9637 9632 9628 9623 9619 9615 9610 9606 9602 9598 9593 9589 9584 9580 9575 9571 9566 9562 9558 9554 9550 9546 9542 9538 9534 9530 9526 9523 9519 9515 9511 9508 9504 9501 9497 9494 9491 9487 9484 9482 9479 9476 9473 9471 9468 9466 9464 9461 9459 9456 9454 9452 9450 9448 9447 9445 9443 9441 9440 9438 9437 9436 9435 9434 9433 9432 9431 9430 9429 9428 9428 9427 9427 9427 9427 9427 9427 9427 9427 9427 9427 9426 9426 9427 9427
9631 9627 9622 9618 9614 9609 9605 9601 9596 9592 9588 9584 9579 9575 9571 9566 9562 9557 9553 9549 9545 9541 9537 9534 9530 9526 9522 9519 9515 9511 9507 9504 9501 9497 9494 9490 9487 9484 9481 9478 9475 9472 9470 9467 9464 9462 9460 9458 9455 9453 9451 9449 9447 9445 9443 9441 9440 9438 9436 9435 9433 9432 9431 9430 9429 9428 9427 9426 9425 9424 9424 9423 9423 9423 9423 9422 9422 9422 9422 9422 9422 9422 9422 9422 9422
9625 9621 9617 9613 9608 9604 9600 9595 9591 9587 9583 9579 9574 9570 9566 9562 9557 9553 9549 9545 9541 9537 9533 9529 9525 9522 9518 9515 9511 9507 9504 9500 9497 9493 9490 9487 9484 9480 9477 9474 9472 9469 9466 9464 9461 9458 9456 9454 9452 9450 9447 9445 9444 9442 9440 9438 9436 9435 9433 9432 9430 9429 9428 9427 9426 9425 9423 9422 9421 9421 9420 9420 9419 9419 9419 9418 9418 9418 9418 9418 9418 9418 9418 9418 9418
9620 9616 9611 9607 9603 9599 9595 9590 9586 9582 9578 9573 9569 9565 9561 9557 9553 9549 9545 9541 9537 9533 9529 9525 9522 9518 9514 9511 9507 9504 9500 9497 9493 9490 9487 9484 9481 9477 9474 9471 9469 9466 9463 9461 9458 9455 9453 9451 9449 9447 9444 9442 9440 9439 9437 9435 9434 9432 9430 9429 9428 9426 9425 9424 9423 9421 9420 9419 9418 9418 9417 9416 9416 9416 9415 9415 9415 9415 9415 9414 9414 9414 9414 9414 9414
9614 9610 9606 9602 9598 9594 9590 9586 9581 9577 9573 9568 9564 9560 9556 9552 9548 9544 9541 9537 9533 9529 9526 9522 9518 9515 9511 9508 9504 9501 9497 9494 9491 9487 9484 9481 9478 9475 9472 9469 9466 9463 9461 9458 9455 9453 9450 9448 9446 9444 9442 9440 9438 9436 9434 9433 9431 9429 9428 9426 9425 9424 9422 9421 9420 9419 9418 9417 9416 9415 9414 9414 9414 9413 9413 9412 9412 9412 9411 9411 9411 9411 9411 9411 9411